#timestamp,LO_Frequency,Hit,StdDev 
1509375615.9,286047001.7,N
1509375635.7,286047003.5,N
1509375655.6,286046999.9,N
1509375675.4,286046999.8,N
1509375695.2,286046996.7,N
1509375715.1,286046994.9,N
1509375716.0,286046994.9,N
1509375735.8,286046997.4,N
1509375755.7,286046995.9,N
1509375775.5,286046997.3,N
1509375795.3,286046996.5,N
1509375815.2,286046999.5,N
1509375835.9,286047003.4,N
1509375855.7,286047002.5,N
1509375875.6,286047005.3,N
1509375895.4,286047006.8,N
1509375915.2,286047002.8,N
1509375935.1,286046999.8,N
1509375936.0,286046999.8,N
1509375955.8,286047000.4,N
1509375975.6,286046997.4,N
1509375995.5,286046996.7,N
1509376015.3,286046996.0,N
1509376035.1,286046994.2,N
1509376055.9,286046992.2,N
1509376075.7,286046993.0,N
1509376095.5,286046996.2,N
1509376115.4,286046993.8,N
1509376135.2,286046997.7,N
1509376155.0,286046997.0,N
1509376155.9,286046997.0,N
1509376175.8,286046999.2,N
1509376195.6,286046998.0,N
1509376215.4,286046993.9,N
1509376235.3,286046993.4,N
1509376255.1,286046997.4,N
1509376275.9,286047000.7,N
1509376295.7,286047000.9,N
1509376315.5,286046998.4,N
1509376335.4,286047000.5,N
1509376355.2,286047004.3,N
1509376375.0,286047000.5,N
1509376375.9,286047000.5,N
1509376395.8,286047000.6,N
1509376415.6,286046997.6,N
1509376435.4,286046996.0,N
1509376455.3,286046994.9,N
1509376475.1,286046996.6,N
1509376476.0,286046996.6,N
1509376495.8,286046997.3,N
1509376515.7,286047001.1,N
1509376535.5,286047007.3,N
1509376555.3,286047002.4,N
1509376575.2,286047000.7,N
1509376595.9,286046999.2,N
1509376615.7,286047001.8,N
1509376635.6,286047003.5,N
1509376655.4,286047000.4,N
1509376675.2,286047003.2,N
1509376695.1,286047004.2,N
1509376696.0,286047004.2,N
1509376715.8,286046999.7,N
1509376735.6,286046999.9,N
1509376755.5,286046999.5,N
1509376775.3,286046996.8,N
1509376795.1,286046995.6,N
1509376815.9,286046997.6,N
1509376835.7,286046995.7,N
1509376855.6,286046998.0,N
1509376875.4,286046996.1,N
1509376895.2,286046998.1,N
1509376915.1,286046998.0,N
1509376916.0,286046998.0,N
1509376935.8,286046996.2,N
1509376955.6,286046995.8,N
1509376975.5,286046995.7,N
1509376995.3,286046998.6,N
1509377015.1,286046998.4,N
1509377035.9,286046995.0,N
1509377055.7,286046993.9,N
1509377075.5,286046994.3,N
1509377095.4,286046990.6,N
1509377115.2,286046987.3,Y
1509377135.0,286046988.9,P
1509377136.0,286046988.9,N
1509377155.8,286046987.0,N
1509377175.6,286046989.9,N
1509377195.5,286046988.9,N
1509377215.3,286046989.0,N
1509377235.1,286046990.3,N
1509377255.9,286046992.2,N
1509377275.7,286046992.2,N
1509377295.5,286046990.7,Y
1509377315.4,286047002.0,P
1509377335.2,286047001.4,N
1509377355.0,286047004.2,N
1509377355.9,286047004.2,N
1509377375.8,286047005.8,N
1509377395.6,286047005.5,N
1509377415.4,286047002.2,N
1509377435.3,286047001.6,N
1509377455.1,286047004.2,N
1509377475.8,286047006.0,N
1509377495.7,286047005.2,N
1509377515.5,286047009.2,N
1509377535.3,286047006.1,N
1509377555.2,286047008.9,N
1509377575.0,286047011.2,N
1509377575.9,286047011.2,N
1509377595.8,286047011.7,N
1509377615.6,286047008.1,N
1509377635.4,286047004.5,N
1509377655.3,286047008.5,N
1509377675.1,286047013.1,N
1509377676.0,286047013.1,N
1509377695.8,286047018.8,Y
1509377715.7,286047005.5,P
1509377735.5,286047003.3,P
1509377755.3,286047002.4,N
1509377775.2,286047002.7,N
1509377795.0,286047000.2,N
1509377795.9,286047000.2,N
1509377815.7,286046999.4,N
1509377835.6,286047000.8,N
1509377855.4,286047002.7,N
1509377875.2,286047002.2,N
1509377895.1,286047003.0,N
1509377896.0,286047003.0,N
1509377915.8,286047006.7,Y
1509377935.7,286047005.2,P
1509377955.5,286047003.4,N
1509377975.3,286047006.3,P
1509377995.2,286047004.8,Y
1509378015.9,286047005.8,P
1509378035.7,286047001.2,N
1509378055.6,286047000.8,N
1509378075.4,286046999.7,N
1509378095.2,286047003.7,N
1509378115.1,286047003.5,N
1509378116.0,286047003.5,N
1509378135.8,286047003.1,N
1509378155.6,286047002.0,N
1509378175.5,286046999.7,N
1509378195.3,286046999.4,N
1509378215.1,286047002.7,N
1509378235.9,286046998.2,N
1509378255.7,286046997.1,N
1509378275.6,286046999.4,N
1509378295.4,286046997.1,N
1509378315.2,286046994.4,N
1509378335.1,286046990.8,Y
1509378336.0,286046990.8,P
1509378355.8,286046988.6,N
1509378375.6,286046991.4,N
1509378395.5,286046987.2,N
1509378415.3,286046988.3,N
1509378435.1,286046988.1,N
1509378455.9,286046990.9,N
1509378475.7,286046989.1,N
1509378495.5,286046982.2,Y
1509378515.4,286046993.8,P
1509378535.2,286046996.6,N
1509378555.0,286047001.7,N
1509378556.0,286047001.7,N
1509378575.8,286047001.7,N
1509378595.6,286046999.6,N
1509378615.5,286046995.3,N
1509378635.3,286046997.8,N
1509378655.1,286046999.8,N
1509378675.9,286046998.6,N
1509378695.7,286046999.0,N
1509378715.5,286046996.8,N
1509378735.4,286046997.6,N
1509378755.2,286047000.6,N
1509378775.0,286047001.8,N
1509378775.9,286047001.8,N
1509378795.8,286047003.1,N
1509378815.6,286047005.7,N
1509378835.4,286047001.3,N
1509378855.3,286047005.1,N
1509378875.1,286047008.9,N
1509378895.8,286047010.8,N
1509378915.7,286047011.5,N
1509378935.5,286047006.6,N
1509378955.3,286047008.8,N
1509378975.2,286047009.0,N
1509378995.0,286047003.0,N
1509378995.9,286047003.0,N
1509379015.8,286047003.0,N
1509379035.6,286047006.7,N
1509379055.4,286047006.1,N
1509379075.3,286047005.9,N
1509379095.1,286047004.4,N
1509379096.0,286047004.4,N
1509379115.8,286047000.5,N
1509379135.7,286047002.3,N
1509379155.5,286047005.6,N
1509379175.3,286047005.4,N
1509379195.2,286047008.5,N
